Terminal Aerodrome Forecast
Issued by NWS Charleston, WV

Current Version | Previous Version | Graphics & Text | Print | Product List | Glossary On
Versions: 1 2 3 4 5 6 7 8 9 10 11 12 13 14 15 16 17 18 19 20 21 22 23 24 25 26 27 28 29
000
FTUS41 KRLX 232056 AAA
TAFBKW
TAF AMD
KBKW 232056Z 2321/2418 11010KT 5SM -RA SCT007 OVC015
     FM232300 10009KT 4SM -RA BR OVC007
     FM240300 10011G16KT 2SM RA BR OVC003=

USA.gov is the U.S. government's official web portal to all federal, state and local government web resources and services.